VKG4538 EKCH-ESOE

Flight info

Callsign VKG4538
Flight time 0h 47m
Altitude 38000
Route VEDAR L997 LASLI DCT DETSO
Aircraft A21N/M-SDE2E3FGHIRWXY/LB1

Departure

Time 2026-04-22 16:57
Airport Copenhagen Kastrup Airport (EKCH)

Arrival

Time 2026-04-22 17:45
Airport Örebro Airport (ESOE)
Time Latitude Longitude Altitude Speed Heading
2026-04-22 16:27 55.62889 12.63933 27 ft 0 kts 13°
2026-04-22 16:45 55.62878 12.63928 27 ft 2 kts 13°
2026-04-22 16:46 55.62865 12.63923 28 ft 2 kts 14°
2026-04-22 16:46 55.62853 12.63917 28 ft 2 kts 18°
2026-04-22 16:46 55.62841 12.63910 28 ft 1 kts 36°
2026-04-22 16:46 55.62837 12.63892 28 ft 1 kts 103°
2026-04-22 16:47 55.62840 12.63874 28 ft 1 kts 105°
2026-04-22 16:47 55.62840 12.63872 28 ft 0 kts 105°
2026-04-22 16:47 55.62840 12.63873 27 ft 0 kts 105°
2026-04-22 16:49 55.62839 12.63879 27 ft 2 kts 107°
2026-04-22 16:49 55.62824 12.63922 27 ft 8 kts 133°
2026-04-22 16:49 55.62758 12.63931 27 ft 13 kts 203°
2026-04-22 16:50 55.62684 12.63857 27 ft 12 kts 191°
2026-04-22 16:50 55.62619 12.63947 27 ft 14 kts 122°
2026-04-22 16:50 55.62560 12.64105 27 ft 17 kts 122°
2026-04-22 16:50 55.62490 12.64294 27 ft 20 kts 124°
2026-04-22 16:51 55.62401 12.64502 27 ft 23 kts 126°
2026-04-22 16:51 55.62310 12.64749 27 ft 25 kts 123°
2026-04-22 16:51 55.62210 12.65020 27 ft 24 kts 123°
2026-04-22 16:51 55.62150 12.65097 27 ft 8 kts 191°
2026-04-22 16:52 55.62094 12.65044 27 ft 11 kts 214°
2026-04-22 16:52 55.61986 12.64914 27 ft 25 kts 212°
2026-04-22 16:52 55.61817 12.64726 27 ft 30 kts 213°
2026-04-22 16:52 55.61636 12.64518 27 ft 29 kts 212°
2026-04-22 16:53 55.61489 12.64347 27 ft 26 kts 214°
2026-04-22 16:53 55.61329 12.64170 27 ft 25 kts 212°
2026-04-22 16:53 55.61248 12.64071 27 ft 13 kts 213°
2026-04-22 16:53 55.61184 12.63997 27 ft 9 kts 214°
2026-04-22 16:54 55.61121 12.63924 27 ft 12 kts 213°
2026-04-22 16:54 55.61039 12.63830 27 ft 15 kts 212°
2026-04-22 16:54 55.60942 12.63719 27 ft 18 kts 213°
2026-04-22 16:54 55.60827 12.63588 27 ft 21 kts 212°
2026-04-22 16:55 55.60697 12.63440 27 ft 24 kts 214°
2026-04-22 16:55 55.60582 12.63276 27 ft 17 kts 220°
2026-04-22 16:55 55.60475 12.63257 27 ft 16 kts 134°
2026-04-22 16:55 55.60414 12.63390 28 ft 11 kts 121°
2026-04-22 16:56 55.60425 12.63486 27 ft 8 kts 40°
2026-04-22 16:56 55.60455 12.63526 27 ft 0 kts 40°
2026-04-22 16:56 55.60456 12.63527 27 ft 1 kts 40°
2026-04-22 16:56 55.60578 12.63716 27 ft 65 kts 41°
2026-04-22 16:57 55.61151 12.64601 28 ft 155 kts 42°
2026-04-22 16:57 55.62077 12.66060 378 ft 189 kts 37°
2026-04-22 16:57 55.63042 12.67543 1465 ft 175 kts 33°
2026-04-22 16:57 55.64000 12.69000 2431 ft 199 kts 34°
2026-04-22 16:58 55.64771 12.70142 2870 ft 227 kts 30°
2026-04-22 16:58 55.66747 12.71220 4546 ft 229 kts 349°
2026-04-22 16:58 55.68306 12.70453 5925 ft 237 kts 345°
2026-04-22 16:58 55.69956 12.69988 7260 ft 243 kts 347°
2026-04-22 16:59 55.71528 12.69153 8556 ft 248 kts 342°
2026-04-22 16:59 55.73176 12.68115 9898 ft 254 kts 341°
2026-04-22 16:59 55.74868 12.66996 10977 ft 269 kts 341°
2026-04-22 16:59 55.76701 12.65764 11759 ft 292 kts 340°
2026-04-22 17:00 55.78642 12.64443 12806 ft 304 kts 340°
2026-04-22 17:00 55.82708 12.61659 15054 ft 321 kts 340°
2026-04-22 17:00 55.84818 12.60211 16168 ft 328 kts 341°
2026-04-22 17:01 55.86965 12.58736 17271 ft 335 kts 341°
2026-04-22 17:01 55.89166 12.57223 18306 ft 343 kts 341°
2026-04-22 17:01 55.91414 12.55675 19225 ft 350 kts 341°
2026-04-22 17:01 55.93710 12.54093 20093 ft 357 kts 342°
2026-04-22 17:02 55.96046 12.52481 20988 ft 364 kts 342°
2026-04-22 17:02 55.98432 12.50832 21844 ft 371 kts 342°
2026-04-22 17:02 56.00861 12.49151 22707 ft 378 kts 342°
2026-04-22 17:02 56.03331 12.47439 23524 ft 384 kts 343°
2026-04-22 17:03 56.05844 12.45695 24236 ft 390 kts 343°
2026-04-22 17:03 56.08392 12.43924 24901 ft 395 kts 343°
2026-04-22 17:03 56.10968 12.42131 25572 ft 400 kts 343°
2026-04-22 17:03 56.13581 12.40364 26164 ft 404 kts 344°
2026-04-22 17:04 56.16213 12.38521 26792 ft 409 kts 344°
2026-04-22 17:04 56.18838 12.36668 27398 ft 412 kts 344°
2026-04-22 17:04 56.21558 12.34750 28014 ft 417 kts 345°
2026-04-22 17:04 56.24226 12.32871 28632 ft 419 kts 345°
2026-04-22 17:05 56.26944 12.30955 29272 ft 421 kts 345°
2026-04-22 17:05 56.29685 12.29026 29802 ft 425 kts 345°
2026-04-22 17:05 56.32456 12.27073 30292 ft 430 kts 345°
2026-04-22 17:05 56.35255 12.25099 30718 ft 434 kts 345°
2026-04-22 17:06 56.38065 12.23110 31274 ft 434 kts 345°
2026-04-22 17:06 56.40862 12.21125 31916 ft 431 kts 345°
2026-04-22 17:06 56.43650 12.19144 32528 ft 429 kts 345°
2026-04-22 17:06 56.46429 12.17170 32999 ft 431 kts 346°
2026-04-22 17:07 56.49224 12.15185 33450 ft 432 kts 346°
2026-04-22 17:07 56.52029 12.13262 33994 ft 427 kts 349°
2026-04-22 17:07 56.54863 12.11947 34615 ft 416 kts 355°
2026-04-22 17:07 56.57696 12.10972 35124 ft 412 kts 357°
2026-04-22 17:08 56.60514 12.10140 35543 ft 411 kts 358°
2026-04-22 17:08 56.63345 12.09373 35936 ft 411 kts 358°
2026-04-22 17:08 56.66179 12.08625 36344 ft 411 kts 358°
2026-04-22 17:08 56.69004 12.07874 36733 ft 411 kts 358°
2026-04-22 17:09 56.71829 12.07110 37129 ft 410 kts 358°
2026-04-22 17:09 56.74653 12.06331 37522 ft 410 kts 358°
2026-04-22 17:09 56.76556 12.05799 37798 ft 410 kts 358°
2026-04-22 17:09 56.80293 12.04745 38186 ft 411 kts 358°
2026-04-22 17:10 56.86054 12.03120 38233 ft 427 kts 358°
2026-04-22 17:10 56.91995 12.02569 38237 ft 427 kts 16°
2026-04-22 17:11 56.94792 12.04196 38232 ft 419 kts 31°
2026-04-22 17:11 56.97319 12.06790 38233 ft 416 kts 36°
2026-04-22 17:11 57.02127 12.12665 38226 ft 415 kts 39°
2026-04-22 17:12 57.06811 12.18844 38219 ft 414 kts 39°
2026-04-22 17:12 57.11462 12.24954 38224 ft 413 kts 39°
2026-04-22 17:13 57.16153 12.31043 38224 ft 413 kts 39°
2026-04-22 17:13 57.20856 12.37127 38222 ft 413 kts 39°
2026-04-22 17:14 57.25556 12.43220 38221 ft 412 kts 39°
2026-04-22 17:14 57.30243 12.49320 38216 ft 412 kts 39°
2026-04-22 17:15 57.34927 12.55439 38213 ft 412 kts 39°
2026-04-22 17:15 57.39522 12.61450 38205 ft 390 kts 39°
2026-04-22 17:16 57.43845 12.67117 38059 ft 372 kts 39°
2026-04-22 17:16 57.45918 12.69846 37766 ft 358 kts 39°
2026-04-22 17:16 57.47925 12.72491 36955 ft 351 kts 39°
2026-04-22 17:17 57.49901 12.75107 36358 ft 346 kts 39°
2026-04-22 17:17 57.51833 12.77667 36095 ft 336 kts 39°
2026-04-22 17:17 57.53718 12.80165 35731 ft 330 kts 39°
2026-04-22 17:17 57.55606 12.82678 34884 ft 338 kts 38°
2026-04-22 17:18 57.57550 12.85272 33929 ft 348 kts 38°
2026-04-22 17:18 57.59547 12.87938 32859 ft 358 kts 37°
2026-04-22 17:18 57.61602 12.90680 31787 ft 368 kts 37°
2026-04-22 17:18 57.63702 12.93480 30905 ft 372 kts 37°
2026-04-22 17:19 57.67910 12.99095 29414 ft 370 kts 36°
2026-04-22 17:19 57.72053 13.04640 28375 ft 363 kts 36°
2026-04-22 17:20 57.75459 13.09215 27931 ft 363 kts 36°
2026-04-22 17:20 57.79543 13.14718 27411 ft 360 kts 36°
2026-04-22 17:21 57.81567 13.17452 27156 ft 359 kts 36°
2026-04-22 17:21 57.85603 13.22913 26640 ft 356 kts 36°
2026-04-22 17:22 57.89614 13.28354 26135 ft 355 kts 36°
2026-04-22 17:22 57.91596 13.31050 25892 ft 347 kts 36°
2026-04-22 17:22 57.95417 13.36256 25133 ft 333 kts 36°
2026-04-22 17:23 57.97288 13.38810 24633 ft 331 kts 36°
2026-04-22 17:23 58.00975 13.43854 23776 ft 324 kts 35°
2026-04-22 17:23 58.02786 13.46338 23308 ft 320 kts 35°
2026-04-22 17:24 58.04574 13.48792 22899 ft 315 kts 35°
2026-04-22 17:24 58.06337 13.51215 22540 ft 313 kts 35°
2026-04-22 17:24 58.08072 13.53602 22172 ft 312 kts 35°
2026-04-22 17:24 58.09825 13.56015 21751 ft 311 kts 35°
2026-04-22 17:25 58.11623 13.58493 21354 ft 335 kts 35°
2026-04-22 17:25 58.13607 13.61223 20904 ft 368 kts 35°
2026-04-22 17:25 58.15703 13.64115 20404 ft 377 kts 35°
2026-04-22 17:25 58.17830 13.67061 19897 ft 377 kts 35°
2026-04-22 17:26 58.19933 13.69985 19411 ft 374 kts 34°
2026-04-22 17:26 58.22021 13.72892 18916 ft 372 kts 34°
2026-04-22 17:26 58.24108 13.75798 18435 ft 371 kts 34°
2026-04-22 17:26 58.26185 13.78694 17898 ft 370 kts 34°
2026-04-22 17:27 58.28249 13.81577 17411 ft 367 kts 34°
2026-04-22 17:27 58.30299 13.84444 16924 ft 364 kts 34°
2026-04-22 17:27 58.32327 13.87284 16444 ft 361 kts 33°
2026-04-22 17:27 58.34346 13.90115 15963 ft 359 kts 33°
2026-04-22 17:28 58.36353 13.92931 15503 ft 358 kts 33°
2026-04-22 17:28 58.38348 13.95735 15017 ft 355 kts 33°
2026-04-22 17:28 58.40332 13.98529 14550 ft 354 kts 33°
2026-04-22 17:28 58.42303 14.01308 14081 ft 353 kts 32°
2026-04-22 17:29 58.44270 14.04085 13582 ft 351 kts 32°
2026-04-22 17:29 58.46228 14.06853 13092 ft 349 kts 32°
2026-04-22 17:29 58.48173 14.09605 12634 ft 346 kts 32°
2026-04-22 17:29 58.50104 14.12342 12166 ft 344 kts 33°
2026-04-22 17:30 58.52019 14.15059 11719 ft 342 kts 33°
2026-04-22 17:30 58.53917 14.17758 11279 ft 339 kts 33°
2026-04-22 17:30 58.55782 14.20417 10921 ft 326 kts 33°
2026-04-22 17:30 58.57548 14.22950 10552 ft 309 kts 32°
2026-04-22 17:31 58.59219 14.25347 10247 ft 293 kts 32°
2026-04-22 17:31 58.60830 14.27600 9951 ft 278 kts 31°
2026-04-22 17:31 58.62370 14.29715 9568 ft 268 kts 31°
2026-04-22 17:31 58.63880 14.31778 9279 ft 266 kts 31°
2026-04-22 17:32 58.65367 14.33810 9009 ft 266 kts 31°
2026-04-22 17:32 58.66804 14.36162 8753 ft 270 kts 41°
2026-04-22 17:32 58.68008 14.38865 8500 ft 271 kts 45°
2026-04-22 17:32 58.69177 14.41664 8127 ft 263 kts 46°
2026-04-22 17:33 58.69961 14.43460 7876 ft 256 kts 43°
2026-04-22 17:33 58.71557 14.46711 7408 ft 251 kts 41°
2026-04-22 17:33 58.72764 14.49118 7056 ft 250 kts 41°
2026-04-22 17:33 58.73968 14.51519 6696 ft 248 kts 41°
2026-04-22 17:34 58.75163 14.53904 6341 ft 247 kts 40°
2026-04-22 17:34 58.76375 14.56233 5985 ft 245 kts 39°
2026-04-22 17:34 58.77591 14.58505 5628 ft 243 kts 38°
2026-04-22 17:34 58.78801 14.60764 5279 ft 241 kts 39°
2026-04-22 17:35 58.79998 14.62997 4953 ft 239 kts 39°
2026-04-22 17:35 58.81190 14.65226 4607 ft 237 kts 38°
2026-04-22 17:35 58.82375 14.67441 4328 ft 237 kts 38°
2026-04-22 17:35 58.83559 14.69661 4090 ft 238 kts 38°
2026-04-22 17:36 58.84743 14.71873 3887 ft 238 kts 38°
2026-04-22 17:36 58.85932 14.74098 3671 ft 238 kts 37°
2026-04-22 17:36 58.87119 14.76329 3476 ft 238 kts 37°
2026-04-22 17:36 58.88286 14.78543 3265 ft 232 kts 38°
2026-04-22 17:37 58.89413 14.80733 3016 ft 229 kts 38°
2026-04-22 17:37 58.90524 14.82921 2942 ft 228 kts 39°
2026-04-22 17:37 58.91632 14.85106 2946 ft 228 kts 38°
2026-04-22 17:37 58.92743 14.87297 2933 ft 228 kts 38°
2026-04-22 17:38 58.93850 14.89481 2933 ft 227 kts 38°
2026-04-22 17:38 58.93877 14.89535 2933 ft 228 kts 38°
2026-04-22 17:38 58.94204 14.90171 2933 ft 227 kts 37°
2026-04-22 17:38 58.95403 14.92091 2976 ft 219 kts 27°
2026-04-22 17:39 58.96728 14.93366 2979 ft 209 kts 13°
2026-04-22 17:39 58.98098 14.94074 2984 ft 206 kts
2026-04-22 17:39 59.00898 14.95169 2976 ft 203 kts
2026-04-22 17:40 59.02267 14.95716 2978 ft 204 kts
2026-04-22 17:40 59.03655 14.96278 2989 ft 204 kts
2026-04-22 17:40 59.05037 14.96837 2980 ft 204 kts
2026-04-22 17:40 59.06431 14.97392 2981 ft 204 kts
2026-04-22 17:41 59.07766 14.97925 2846 ft 186 kts
2026-04-22 17:41 59.08979 14.98413 2578 ft 171 kts
2026-04-22 17:41 59.10095 14.98861 2347 ft 155 kts
2026-04-22 17:41 59.11094 14.99263 2126 ft 138 kts
2026-04-22 17:42 59.11985 14.99619 1943 ft 124 kts
2026-04-22 17:42 59.12782 14.99942 1780 ft 112 kts
2026-04-22 17:42 59.13539 15.00241 1651 ft 111 kts
2026-04-22 17:42 59.14309 15.00546 1487 ft 114 kts
2026-04-22 17:43 59.15089 15.00860 1339 ft 115 kts
2026-04-22 17:43 59.15874 15.01177 1168 ft 116 kts
2026-04-22 17:43 59.16680 15.01502 1015 ft 119 kts
2026-04-22 17:43 59.17500 15.01830 849 ft 122 kts
2026-04-22 17:44 59.18335 15.02175 656 ft 125 kts
2026-04-22 17:44 59.19205 15.02529 522 ft 130 kts
2026-04-22 17:44 59.20093 15.02889 355 ft 132 kts
2026-04-22 17:44 59.20987 15.03249 207 ft 126 kts
2026-04-22 17:45 59.21778 15.03559 198 ft 106 kts 12°
2026-04-22 17:45 59.22354 15.03789 192 ft 47 kts 11°
2026-04-22 17:45 59.22489 15.03950 189 ft 17 kts 89°
2026-04-22 17:45 59.22472 15.04146 188 ft 14 kts 102°
2026-04-22 17:46 59.22484 15.04300 199 ft 11 kts 35°
2026-04-22 17:46 59.22532 15.04321 191 ft 13 kts 12°
2026-04-22 17:46 59.22624 15.04368 188 ft 2 kts 45°
2026-04-22 17:46 59.22624 15.04402 204 ft 4 kts 98°
2026-04-22 17:47 59.22619 15.04440 197 ft 0 kts 103°
2026-04-22 17:47 59.22616 15.04465 192 ft 9 kts 103°
2026-04-22 17:47 59.22615 15.04477 194 ft 0 kts 103°
2026-04-22 17:47 59.22706 15.04519 188 ft 0 kts 103°